sat.trackr.live / text

‹ back to catalog

KUIPER-00581

NORAD 69273 · 2026-118G

PAYLOAD ACTIVE UNKNOWN

§ Identity

Operator
Country
US
Launch date
2026-05-29
Launch site
AFETR
Launch vehicle
Mass (kg)
RCS (m²)

External: N2YO · Heavens-Above · Gunter

§ Orbital elements

Epoch: 2026-09-20T05:13:51.635136Z

Period
97.30 min
Inclination
51.9068°
Eccentricity
0.0001060
Mean motion
14.79949920 rev/d
Perigee alt
628.7 km
Apogee alt
630.2 km
Semi-major
7,007.6 km
B*
5.2471e-4
RAAN
342.9404°
Arg perigee
190.4394°
Mean anomaly
169.6547°
Rev number
1,828

§ Raw data

KUIPER-005811 69273U 26118G   26263.21795874  .00003783  00000+0  52471-3 0  99992 69273  51.9068 342.9404 0001060 190.4394 169.6547 14.79949920 18282

JSON: /api/v1/satellites/69273 · /tle

For live sub-satellite position, see the globe view (requires WebGL).

§ Visibility from observer

Set your observer location to see the next 7 days of passes ≥ 10°. The values pass through the URL so the page stays shareable.

No JS? Fill the form by hand. The geolocation button needs JavaScript.